sat.trackr.live / text

‹ back to catalog

STARLINK-35731

NORAD 66228 · 2025-244Y

PAYLOAD ACTIVE UNKNOWN

§ Identity

Operator
Country
US
Launch date
2025-10-28
Launch site
AFWTR
Launch vehicle
Mass (kg)
RCS (m²)

Purposes: comms

External: N2YO · Heavens-Above · Gunter

§ Orbital elements

Epoch: 2026-05-25T04:00:03.998880Z

Period
93.90 min
Inclination
53.1602°
Eccentricity
0.0001765
Mean motion
15.33519500 rev/d
Perigee alt
464.1 km
Apogee alt
466.5 km
Semi-major
6,843.5 km
B*
1.6564e-3
RAAN
234.5303°
Arg perigee
97.1143°
Mean anomaly
152.1997°
Rev number
580

§ Raw data

STARLINK-357311 66228U 25244Y   26145.16671295  .00054450  00000+0  16564-2 0  99972 66228  53.1602 234.5303 0001765  97.1143 152.1997 15.33519500  5806

JSON: /api/v1/satellites/66228 · /tle

For live sub-satellite position, see the globe view (requires WebGL).

§ Visibility from observer

Set your observer location to see the next 7 days of passes ≥ 10°. The values pass through the URL so the page stays shareable.

No JS? Fill the form by hand. The geolocation button needs JavaScript.